Morgantown, WV

5:08 AM EST on January 18, 2018 (GMT -0500)
Morgantown Municipal-Hart

Weather History for KMGW - September, 2014

Change the Weather History Date:

Sunday, September 21, 2014

  Actual Average Record
Temperature  
Mean Temperature 70 °F 63 °F  
Max Temperature 79 °F 74 °F 91 °F (1895)
Min Temperature 61 °F 53 °F 31 °F (1956)
Degree Days  
Heating Degree Days 0 4  
Month to date heating degree days 38 40  
Since 1 July heating degree days 44 51  
Cooling Degree Days 5 2  
Month to date cooling degree days 118 78  
Year to date cooling degree days 951 787  
Growing Degree Days 21 (Base 50)    
Moisture  
Dew Point 58 °F    
Average Humidity 60    
Maximum Humidity 84    
Minimum Humidity 35    
Precipitation  
Precipitation 0.19 in 0.12 in 1.53 in (1950)
Month to date precipitation 1.63 2.24  
Year to date precipitation 32.10 31.71  
Sea Level Pressure  
Sea Level Pressure 29.82 in    
Wind  
Wind Speed 7 mph (SW)    
Max Wind Speed 14 mph    
Max Gust Speed 24 mph    
Visibility 9 miles    
Events Rain    
T = Trace of Precipitation, MM = Missing Value Source: NWS Daily Summary

Daily Weather History Graph

Daily Weather History Graph

Search for Another Location

Airport or City:

Trip Planner

Search our weather history database for the weather conditions in past years. The results will help you decide how hot, cold, wet, or windy it might be!

Date:

Astronomy

Sep. 21, 2014 Rise Set
Actual Time 7:06 AM EDT 7:18 PM EDT
Civil Twilight 6:39 AM EDT 7:45 PM EDT
Nautical Twilight 6:07 AM EDT 8:16 PM EDT
Astronomical Twilight 5:35 AM EDT 8:48 PM EDT
Moon 4:38 AM EDT (9/21) 5:53 PM EDT (9/21)
Length of Visible Light 13h 05m
Length of Day
12h 12m
Waning Crescent, 6% of the Moon is Illuminated
Sep 21
Waning Crescent
Sep 24
New
Oct 1
First Quarter
Oct 8
Full
Oct 15
Last Quarter

Hourly Weather History & Observations

Time (EDT) Temp. Dew Point Humidity Pressure Visibility Wind Dir Wind Speed Gust Speed Precip Events Conditions
1:53 AM 66.9 °F 59.0 °F 76% 29.94 in 10.0 mi SSW 3.5 mph - N/A   Clear
3:53 AM 68.0 °F 57.0 °F 68% 29.88 in 10.0 mi SSW 4.6 mph - N/A   Clear
4:53 AM 68.0 °F 57.0 °F 68% 29.88 in 10.0 mi SSW 4.6 mph - N/A   Mostly Cloudy
5:53 AM 64.9 °F 55.9 °F 73% 29.86 in 10.0 mi South 4.6 mph - N/A   Clear
6:53 AM 64.9 °F 57.0 °F 75% 29.86 in 10.0 mi SSW 5.8 mph - N/A   Partly Cloudy
7:53 AM 66.9 °F 57.0 °F 70% 29.87 in 10.0 mi South 4.6 mph - N/A   Mostly Cloudy
8:53 AM 70.0 °F 59.0 °F 68% 29.85 in 10.0 mi South 6.9 mph - N/A   Partly Cloudy
10:26 AM 71.1 °F 62.1 °F 73% 29.85 in 1.5 mi WSW 6.9 mph 16.1 mph 0.07 in Rain Rain
10:35 AM 69.1 °F 63.0 °F 81% 29.85 in 0.5 mi SW 4.6 mph - 0.19 in Rain Heavy Rain
10:42 AM 69.1 °F 64.0 °F 84% 29.85 in 2.5 mi SSW 5.8 mph - 0.19 in Rain Light Rain
10:46 AM 69.1 °F 64.0 °F 84% 29.85 in 10.0 mi South 5.8 mph - 0.19 in   Overcast
11:03 AM 70.0 °F 64.0 °F 81% 29.84 in 6.0 mi SSW 5.8 mph - 0.00 in Rain Light Rain
11:53 AM 72.0 °F 64.9 °F 78% 29.80 in 10.0 mi SSW 10.4 mph - 0.00 in   Overcast
12:53 PM 72.0 °F 64.0 °F 76% 29.79 in 10.0 mi SW 5.8 mph - 0.00 in   Overcast
1:20 PM 72.0 °F 64.0 °F 76% 29.81 in 10.0 mi WSW 6.9 mph - N/A   Overcast
1:38 PM 73.0 °F 64.9 °F 76% 29.80 in 10.0 mi SW 6.9 mph - N/A   Overcast
1:53 PM 73.9 °F 64.9 °F 73% 29.77 in 10.0 mi SSW 8.1 mph - N/A   Overcast
2:53 PM 77.0 °F 64.0 °F 64% 29.71 in 10.0 mi Variable 6.9 mph 19.6 mph N/A   Scattered Clouds
3:53 PM 78.1 °F 63.0 °F 60% 29.69 in 10.0 mi SSW 9.2 mph - N/A   Mostly Cloudy
4:53 PM 73.9 °F 61.0 °F 64% 29.68 in 10.0 mi SSW 11.5 mph 24.2 mph 0.00 in Rain Light Rain
5:53 PM 73.0 °F 60.1 °F 64% 29.70 in 10.0 mi SSW 9.2 mph - 0.00 in Rain Light Rain
6:53 PM 72.0 °F 61.0 °F 68% 29.74 in 10.0 mi WSW 5.8 mph - 0.00 in   Mostly Cloudy
7:53 PM 72.0 °F 43.0 °F 35% 29.78 in 10.0 mi NW 4.6 mph - N/A   Clear
8:53 PM 69.1 °F 45.0 °F 42% 29.83 in 10.0 mi Variable 5.8 mph - N/A   Clear
9:53 PM 66.0 °F 45.0 °F 47% 29.86 in 10.0 mi WNW 6.9 mph - N/A   Clear
10:53 PM 64.0 °F 45.0 °F 50% 29.89 in 10.0 mi WNW 8.1 mph - N/A   Clear
11:53 PM 62.1 °F 46.0 °F 56% 29.90 in 10.0 mi West 3.5 mph - N/A   Clear